| time (UTC) | temp F | wind direction | speed MPH | gust MPH | rain 1hr in | rain 24hr in | rain mn in | humidity % | barometer mb |
| 20260902070046 | 80 | 135 | 3.0 | 9.0 | 0.00 | 0.00 | 0.00 | 69 | 1014.0 |
| 20260902064546 | 81 | 138 | 4.0 | 7.0 | 0.00 | 0.00 | 0.00 | 68 | 1013.9 |
| 20260902063055 | 81 | 161 | 3.0 | 7.0 | 0.00 | 0.00 | 0.00 | 67 | 1013.8 |
| 20260902061541 | 82 | 142 | 3.0 | 7.0 | 0.00 | 0.00 | 0.00 | 65 | 1013.8 |
| 20260902060039 | 82 | 124 | 4.0 | 8.0 | 0.00 | 0.00 | 0.00 | 64 | 1013.9 |
| 20260902054543 | 82 | 142 | 4.0 | 8.0 | 0.00 | 0.00 | 0.00 | 63 | 1013.9 |
| 20260902053034 | 83 | 123 | 3.0 | 6.0 | 0.00 | 0.00 | 0.00 | 61 | 1013.8 |
| 20260902051532 | 83 | 131 | 3.0 | 6.0 | 0.00 | 0.00 | 0.00 | 59 | 1013.7 |
| 20260902050053 | 84 | 136 | 3.0 | 7.0 | 0.00 | 0.00 | 0.00 | 57 | 1013.7 |
| 20260902044527 | 85 | 143 | 3.0 | 8.0 | 0.00 | 0.00 | 0.00 | 56 | 1013.7 |
| 20260902043032 | 86 | 129 | 6.0 | 12.0 | 0.00 | 0.00 | 0.00 | 54 | 1013.8 |
| 20260902041527 | 86 | 115 | 6.0 | 10.0 | 0.00 | 0.00 | 0.00 | 54 | 1013.6 |
| 20260902040025 | 87 | 110 | 5.0 | 11.0 | 0.00 | 0.00 | 0.00 | 53 | 1013.4 |
| 20260902034525 | 88 | 126 | 7.0 | 10.0 | 0.00 | 0.00 | 0.00 | 52 | 1013.3 |
| 20260902033024 | 87 | 145 | 5.0 | 9.0 | 0.00 | 0.00 | 0.00 | 52 | 1013.2 |
| 20260902031524 | 88 | 107 | 4.0 | 8.0 | 0.00 | 0.00 | 0.00 | 52 | 1013.1 |
| 20260902030023 | 88 | 119 | 4.0 | 9.0 | 0.00 | 0.00 | 0.00 | 52 | 1013.0 |
| 20260902024523 | 88 | 88 | 3.0 | 6.0 | 0.00 | 0.00 | 0.00 | 52 | 1012.7 |
| 20260902023023 | 89 | 107 | 3.0 | 7.0 | 0.00 | 0.00 | 0.00 | 51 | 1012.4 |
| 20260902021522 | 89 | 101 | 2.0 | 6.0 | 0.00 | 0.00 | 0.00 | 50 | 1012.2 |
| 20260902020023 | 90 | 106 | 3.0 | 7.0 | 0.00 | 0.00 | 0.00 | 50 | 1011.9 |
| 20260902014522 | 91 | 100 | 5.0 | 9.0 | 0.00 | 0.00 | 0.00 | 48 | 1011.8 |
| 20260902013021 | 91 | 124 | 6.0 | 10.0 | 0.00 | 0.00 | 0.00 | 47 | 1011.7 |
| 20260902011526 | 92 | 117 | 7.0 | 10.0 | 0.00 | 0.00 | 0.00 | 45 | 1011.6 |
| 20260902010021 | 93 | 101 | 7.0 | 12.0 | 0.00 | 0.00 | 0.00 | 44 | 1011.4 |
| 20260902004520 | 94 | 95 | 9.0 | 16.0 | 0.00 | 0.00 | 0.00 | 43 | 1011.4 |
| 20260902003026 | 95 | 99 | 2.0 | 3.0 | 0.00 | 0.00 | 0.00 | 42 | 1011.4 |
| 20260902001518 | 95 | 92 | 1.0 | 2.0 | 0.00 | 0.00 | 0.00 | 41 | 1011.5 |
| 20260902000017 | 95 | 121 | 0.0 | 2.0 | 0.00 | 0.00 | 0.00 | 41 | 1011.7 |
| 20260901234517 | 95 | 114 | 3.0 | 4.0 | 0.00 | 0.00 | 0.00 | 41 | 1011.7 |
| 20260901233015 | 96 | 94 | 6.0 | 12.0 | 0.00 | 0.00 | 0.00 | 39 | 1011.8 |
| 20260901231522 | 96 | 95 | 8.0 | 14.0 | 0.00 | 0.00 | 0.00 | 39 | 1011.9 |
| 20260901230015 | 97 | 109 | 7.0 | 11.0 | 0.00 | 0.00 | 0.00 | 39 | 1011.8 |
| 20260901224515 | 96 | 103 | 3.0 | 6.0 | 0.00 | 0.00 | 0.00 | 40 | 1011.9 |
| 20260901223014 | 96 | 136 | 3.0 | 9.0 | 0.00 | 0.00 | 0.00 | 40 | 1011.9 |
| 20260901221514 | 96 | 158 | 5.0 | 9.0 | 0.00 | 0.00 | 0.00 | 40 | 1011.8 |
| 20260901220013 | 97 | 126 | 7.0 | 19.0 | 0.00 | 0.00 | 0.00 | 38 | 1011.9 |
| 20260901214511 | 98 | 97 | 12.0 | 18.0 | 0.00 | 0.00 | 0.00 | 37 | 1011.9 |
| 20260901213009 | 99 | 145 | 7.0 | 12.0 | 0.00 | 0.00 | 0.00 | 37 | 1012.2 |
| 20260901211510 | 99 | 118 | 9.0 | 13.0 | 0.00 | 0.00 | 0.00 | 37 | 1012.3 |
| 20260901210007 | 100 | 170 | 4.0 | 13.0 | 0.00 | 0.00 | 0.00 | 36 | 1012.4 |
| 20260901204504 | 98 | 229 | 1.0 | 7.0 | 0.00 | 0.00 | 0.00 | 40 | 1012.5 |
| 20260901203003 | 99 | 151 | 9.0 | 14.0 | 0.00 | 0.00 | 0.00 | 38 | 1012.8 |
| 20260901201501 | 99 | 200 | 7.0 | 12.0 | 0.00 | 0.00 | 0.00 | 39 | 1012.8 |
| 20260901200058 | 97 | 173 | 4.0 | 10.0 | 0.00 | 0.00 | 0.00 | 41 | 1012.9 |
| 20260901194600 | 97 | 128 | 7.0 | 15.0 | 0.00 | 0.00 | 0.00 | 41 | 1013.1 |
| 20260901193055 | 96 | 64 | 6.0 | 11.0 | 0.00 | 0.00 | 0.00 | 41 | 1013.3 |
| 20260901191611 | 96 | 104 | 5.0 | 8.0 | 0.00 | 0.00 | 0.00 | 42 | 1013.5 |
| 20260901190053 | 95 | 90 | 6.0 | 12.0 | 0.00 | 0.00 | 0.00 | 43 | 1013.8 |
| 20260901184610 | 96 | 119 | 3.0 | 10.0 | 0.00 | 0.00 | 0.00 | 43 | 1014.0 |
| 20260901183054 | 97 | 185 | 1.0 | 13.0 | 0.00 | 0.00 | 0.00 | 44 | 1014.2 |
| 20260901181557 | 96 | 146 | 6.0 | 12.0 | 0.00 | 0.00 | 0.00 | 44 | 1014.4 |
| 20260901180046 | 93 | 80 | 5.0 | 8.0 | 0.00 | 0.00 | 0.00 | 46 | 1014.8 |
| 20260901174554 | 93 | 153 | 1.0 | 4.0 | 0.00 | 0.00 | 0.00 | 48 | 1015.2 |
| 20260901173045 | 94 | 155 | 7.0 | 13.0 | 0.00 | 0.00 | 0.00 | 46 | 1015.3 |
| 20260901171544 | 91 | 28 | 0.0 | 6.0 | 0.00 | 0.00 | 0.00 | 51 | 1015.3 |
| 20260901170043 | 92 | 180 | 1.0 | 10.0 | 0.00 | 0.00 | 0.00 | 49 | 1015.5 |
| 20260901164543 | 92 | 163 | 1.0 | 8.0 | 0.00 | 0.00 | 0.00 | 50 | 1015.6 |
| 20260901163040 | 93 | 238 | 6.0 | 12.0 | 0.00 | 0.00 | 0.00 | 50 | 1015.7 |
| 20260901161551 | 91 | 205 | 6.0 | 10.0 | 0.00 | 0.00 | 0.00 | 51 | 1015.7 |
| 20260901160058 | 91 | 140 | 3.0 | 10.0 | 0.00 | 0.00 | 0.00 | 52 | 1015.8 |
| 20260901154535 | 91 | 205 | 7.0 | 11.0 | 0.00 | 0.00 | 0.00 | 53 | 1015.9 |
| 20260901153031 | 90 | 137 | 3.0 | 10.0 | 0.00 | 0.00 | 0.00 | 55 | 1015.8 |
| 20260901151529 | 89 | 196 | 5.0 | 8.0 | 0.00 | 0.00 | 0.00 | 57 | 1015.8 |
| 20260901150028 | 87 | 215 | 4.0 | 7.0 | 0.00 | 0.00 | 0.00 | 59 | 1016.0 |
| 20260901144526 | 87 | 175 | 2.0 | 5.0 | 0.00 | 0.00 | 0.00 | 61 | 1016.1 |
| 20260901143023 | 85 | 163 | 4.0 | 8.0 | 0.00 | 0.00 | 0.00 | 63 | 1016.1 |
| 20260901141521 | 84 | 225 | 5.0 | 7.0 | 0.00 | 0.00 | 0.00 | 64 | 1016.1 |
| 20260901140025 | 83 | 131 | 3.0 | 7.0 | 0.00 | 0.00 | 0.00 | 66 | 1016.0 |
| 20260901134525 | 82 | 146 | 4.0 | 7.0 | 0.00 | 0.00 | 0.00 | 67 | 1016.0 |
| 20260901133019 | 81 | 153 | 4.0 | 9.0 | 0.00 | 0.00 | 0.00 | 69 | 1016.0 |
| 20260901131518 | 80 | 142 | 3.0 | 7.0 | 0.00 | 0.00 | 0.00 | 70 | 1016.0 |
| 20260901130023 | 78 | 149 | 3.0 | 5.0 | 0.00 | 0.00 | 0.00 | 72 | 1015.7 |
| 20260901124521 | 77 | 138 | 0.0 | 0.0 | 0.00 | 0.00 | 0.00 | 73 | 1015.5 |
| 20260901123032 | 76 | 138 | 0.0 | 0.0 | 0.00 | 0.00 | 0.00 | 75 | 1015.3 |
| 20260901121512 | 75 | 138 | 0.0 | 0.0 | 0.00 | 0.00 | 0.00 | 75 | 1015.2 |
| 20260901120008 | 75 | 138 | 0.0 | 0.0 | 0.00 | 0.00 | 0.00 | 74 | 1014.9 |
| 20260901114507 | 76 | 138 | 0.0 | 0.0 | 0.00 | 0.00 | 0.00 | 74 | 1014.9 |
| 20260901113006 | 76 | 138 | 0.0 | 0.0 | 0.00 | 0.00 | 0.00 | 73 | 1014.9 |
| 20260901111504 | 76 | 138 | 0.0 | 0.0 | 0.00 | 0.00 | 0.00 | 72 | 1014.8 |
| 20260901110002 | 76 | 138 | 0.0 | 0.0 | 0.00 | 0.00 | 0.00 | 71 | 1014.6 |
| 20260901104600 | 77 | 138 | 0.0 | 0.0 | 0.00 | 0.00 | 0.00 | 70 | 1014.5 |
| 20260901103058 | 77 | 155 | 0.0 | 2.0 | 0.00 | 0.00 | 0.00 | 69 | 1014.5 |
| 20260901101556 | 78 | 145 | 2.0 | 5.0 | 0.00 | 0.00 | 0.00 | 68 | 1014.6 |
| 20260901100056 | 78 | 137 | 3.0 | 4.0 | 0.00 | 0.00 | 0.00 | 68 | 1014.6 |
| 20260901094554 | 78 | 146 | 2.0 | 4.0 | 0.00 | 0.00 | 0.00 | 67 | 1014.6 |
| 20260901093053 | 79 | 133 | 3.0 | 6.0 | 0.00 | 0.00 | 0.00 | 66 | 1014.6 |
| 20260901091552 | 79 | 138 | 2.0 | 6.0 | 0.00 | 0.00 | 0.00 | 65 | 1014.7 |
| 20260901090049 | 80 | 134 | 3.0 | 7.0 | 0.00 | 0.00 | 0.00 | 64 | 1014.6 |
| 20260901084547 | 80 | 136 | 3.0 | 7.0 | 0.00 | 0.00 | 0.00 | 63 | 1014.6 |
| 20260901083045 | 81 | 130 | 4.0 | 7.0 | 0.00 | 0.00 | 0.00 | 62 | 1014.5 |
| 20260901081543 | 81 | 129 | 4.0 | 8.0 | 0.00 | 0.00 | 0.00 | 61 | 1014.5 |
| 20260901080041 | 81 | 128 | 5.0 | 9.0 | 0.00 | 0.00 | 0.00 | 60 | 1014.4 |
| 20260901074540 | 82 | 115 | 4.0 | 7.0 | 0.00 | 0.00 | 0.00 | 59 | 1014.5 |
| 20260901073039 | 82 | 130 | 5.0 | 8.0 | 0.00 | 0.00 | 0.00 | 58 | 1014.3 |
| 20260901071537 | 82 | 110 | 4.0 | 8.0 | 0.00 | 0.00 | 0.00 | 58 | 1014.4 |